DW7002 Weather Reports


Display with metric or nautical units.
time (UTC)temp
F
wind
direction
speed
MPH
gust
MPH
rain 1hr
in
rain 24hr
in
rain mn
in
humidity
%
barometer
mb
20260902173123 93 155 0.0 2.0 0.00 0.00 0.00 53 1020.6
20260902163144 92 167 0.0 1.0 0.00 0.00 0.00 61 1021.1
20260902162116 92 182 0.0 1.0 0.00 0.00 0.00 65 1021.2
20260902161130 91 129 0.0 0.0 0.00 0.00 0.00 64 1021.3
20260902160128 92 126 0.0 0.0 0.00 0.00 0.00 67 1021.3
20260902155121 91 126 0.0 2.0 0.00 0.00 0.00 65 1021.3
20260902154136 91 183 0.0 0.0 0.00 0.00 0.00 65 1021.3
20260902153129 91 183 0.0 0.0 0.00 0.00 0.00 65 1021.4
20260902152122 91 183 0.0 2.0 0.00 0.00 0.00 65 1021.4
20260902151119 90 182 0.0 0.0 0.00 0.00 0.00 67 1021.3
20260902150133 89 182 0.0 0.0 0.00 0.00 0.00 69 1021.4
20260902145124 88 183 0.0 0.0 0.00 0.00 0.00 71 1021.3
20260902144121 87 183 0.0 0.0 0.00 0.00 0.00 73 1021.3
20260902143114 86 183 0.0 0.0 0.00 0.00 0.00 75 1021.2
20260902142127 85 183 0.0 0.0 0.00 0.00 0.00 76 1021.1
20260902141121 84 183 0.0 0.0 0.00 0.00 0.00 78 1021.1
20260902140119 83 182 0.0 0.0 0.00 0.00 0.00 83 1021.0
20260902135149 82 182 0.0 0.0 0.00 0.00 0.00 84 1021.1
20260902134121 80 182 0.0 0.0 0.00 0.00 0.00 86 1021.1
20260902133134 79 180 0.0 0.0 0.00 0.00 0.00 88 1021.1
20260902132151 78 178 0.0 0.0 0.00 0.00 0.00 90 1021.1
20260902131124 76 178 0.0 0.0 0.00 0.00 0.00 93 1021.1
20260902130116 75 171 0.0 0.0 0.00 0.00 0.00 96 1021.1
20260902125127 74 171 0.0 0.0 0.00 0.00 0.00 95 1021.1
20260902124123 74 171 0.0 0.0 0.00 0.00 0.00 96 1021.1
20260902123138 73 171 0.0 0.0 0.00 0.00 0.00 96 1021.2
20260902122128 73 171 0.0 0.0 0.00 0.00 0.00 96 1021.3
20260902121124 73 171 0.0 0.0 0.00 0.00 0.00 95 1021.3
20260902120118 72 171 0.0 0.0 0.00 0.00 0.00 95 1021.2
20260902115128 72 171 0.0 0.0 0.00 0.00 0.00 95 1021.1
20260902114122 72 171 0.0 0.0 0.00 0.00 0.00 95 1021.1
20260902113119 72 146 0.0 0.0 0.00 0.00 0.00 94 1020.8
20260902112132 72 144 0.0 0.0 0.00 0.00 0.00 94 1020.8
20260902111125 72 144 0.0 0.0 0.00 0.00 0.00 94 1020.7
20260902110121 72 144 0.0 0.0 0.00 0.00 0.00 94 1020.6
20260902105133 72 144 0.0 0.0 0.00 0.00 0.00 94 1020.6
20260902104127 72 144 0.0 0.0 0.00 0.00 0.00 94 1020.6
20260902103120 72 144 0.0 0.0 0.00 0.00 0.00 94 1020.6
20260902102138 72 144 0.0 0.0 0.00 0.00 0.00 94 1020.4
20260902101151 72 144 0.0 0.0 0.00 0.00 0.00 94 1020.4
20260902100123 72 144 0.0 0.0 0.00 0.00 0.00 94 1020.4
20260902095116 72 144 0.0 0.0 0.00 0.00 0.00 94 1020.4
20260902094133 72 144 0.0 0.0 0.00 0.00 0.00 94 1020.4
20260902093127 73 144 0.0 0.0 0.00 0.00 0.00 94 1020.2
20260902092120 73 144 0.0 0.0 0.00 0.00 0.00 94 1020.2
20260902091117 73 144 0.0 0.0 0.00 0.00 0.00 94 1020.2
20260902090151 73 144 0.0 0.0 0.00 0.00 0.00 94 1020.2
20260902085123 73 144 0.0 0.0 0.00 0.00 0.00 94 1020.2
20260902084136 73 144 0.0 0.0 0.00 0.00 0.00 94 1020.2
20260902083128 73 144 0.0 0.0 0.00 0.00 0.00 94 1020.1
20260902082125 73 144 0.0 0.0 0.00 0.00 0.00 94 1020.1
20260902081119 73 144 0.0 0.0 0.00 0.00 0.00 94 1020.0
20260902080131 74 144 0.0 0.0 0.00 0.00 0.00 94 1020.0
20260902075125 74 144 0.0 0.0 0.00 0.00 0.00 93 1019.9
20260902074120 74 145 0.0 0.0 0.00 0.00 0.00 93 1019.8
20260902073133 74 145 0.0 0.0 0.00 0.00 0.00 93 1020.0
20260902072125 74 145 0.0 0.0 0.00 0.00 0.00 93 1020.0
20260902071121 74 145 0.0 0.0 0.00 0.00 0.00 93 1020.1
20260902070115 74 145 0.0 1.0 0.00 0.00 0.00 93 1020.0
20260902065126 74 145 0.0 1.0 0.00 0.00 0.00 93 1020.2
20260902064124 74 144 0.0 0.0 0.00 0.00 0.00 93 1020.1
20260902063115 74 144 0.0 0.0 0.00 0.00 0.00 93 1020.1
20260902062129 74 144 0.0 0.0 0.00 0.00 0.00 93 1020.1
20260902061144 75 144 0.0 0.0 0.00 0.00 0.00 93 1020.2
20260902060119 75 144 0.0 0.0 0.00 0.00 0.00 93 1020.1
20260902055130 75 144 0.0 0.0 0.00 0.00 0.00 93 1020.1
20260902054124 75 144 0.0 0.0 0.00 0.00 0.00 93 1020.0
20260902053123 75 144 0.0 1.0 0.00 0.00 0.00 92 1020.0
20260902052117 75 143 0.0 0.0 0.00 0.00 0.00 92 1019.9
20260902051131 75 143 0.0 0.0 0.00 0.00 0.00 92 1019.8
20260902050123 75 143 0.0 0.0 0.00 0.00 0.00 92 1019.8
20260902045118 75 143 0.0 0.0 0.00 0.00 0.00 92 1019.7
20260902044133 76 143 0.0 0.0 0.00 0.00 0.00 92 1019.7
20260902043127 76 143 0.0 0.0 0.00 0.00 0.00 91 1019.7
20260902042125 76 143 0.0 0.0 0.00 0.00 0.00 91 1019.6
20260902041138 76 143 0.0 0.0 0.00 0.00 0.00 91 1019.6
20260902040130 76 143 0.0 0.0 0.00 0.00 0.00 91 1019.6
20260902035121 76 143 0.0 0.0 0.00 0.00 0.00 91 1019.6
20260902034138 77 143 0.0 0.0 0.00 0.00 0.00 90 1019.8
20260902033131 77 143 0.0 0.0 0.00 0.00 0.00 90 1019.6
20260902032125 77 143 0.0 0.0 0.00 0.00 0.00 89 1019.5
20260902031118 77 143 0.0 0.0 0.00 0.00 0.00 89 1019.6
20260902030153 78 143 0.0 0.0 0.00 0.00 0.00 89 1019.5
20260902025125 78 143 0.0 0.0 0.00 0.00 0.00 88 1019.6
20260902024119 78 143 0.0 0.0 0.00 0.00 0.00 88 1019.6
20260902023132 78 143 0.0 0.0 0.00 0.00 0.00 87 1019.6
20260902022129 79 143 0.0 0.0 0.00 0.00 0.00 87 1019.6
20260902021122 79 143 0.0 0.0 0.00 0.00 0.00 86 1019.5
20260902020116 79 143 0.0 0.0 0.00 0.00 0.00 86 1019.4
20260902015132 79 143 0.0 0.0 0.00 0.00 0.00 86 1019.2
20260902014125 80 143 0.0 0.0 0.00 0.00 0.00 85 1019.0
20260902013119 80 143 0.0 0.0 0.00 0.00 0.00 84 1018.9
20260902012152 80 143 0.0 0.0 0.00 0.00 0.00 84 1018.9
20260902011129 81 143 0.0 0.0 0.00 0.00 0.00 84 1018.9
20260902010123 81 143 0.0 0.0 0.00 0.00 0.00 83 1018.8
20260902005132 82 143 0.0 0.0 0.00 0.00 0.00 83 1018.7
20260902004124 82 143 0.0 0.0 0.00 0.00 0.00 82 1018.6
20260902003119 82 143 0.0 0.0 0.00 0.00 0.00 82 1018.6
20260902002132 83 143 0.0 0.0 0.00 0.00 0.00 81 1018.5
20260902001125 83 143 0.0 0.0 0.00 0.00 0.00 81 1018.5
20260902000121 84 143 0.0 0.0 0.00 0.00 0.00 80 1018.6
20260901235132 85 143 0.0 0.0 0.00 0.00 0.00 79 1018.7
20260901234124 85 143 0.0 0.0 0.00 0.00 0.00 77 1018.7
20260901211146 90 131 0.0 0.0 0.00 0.00 0.00 64 1018.8
20260901210122 91 132 0.0 0.0 0.00 0.00 0.00 63 1019.0
20260901205134 91 132 0.0 2.0 0.00 0.00 0.00 64 1018.9
20260901204127 91 133 0.0 2.0 0.00 0.00 0.00 63 1018.9
20260901203122 92 224 0.0 0.0 0.00 0.00 0.00 61 1019.1
20260901202119 93 224 0.0 0.0 0.00 0.00 0.00 63 1019.0
20260901201152 94 224 0.0 0.0 0.00 0.00 0.00 60 1019.1
20260901200124 93 224 0.0 0.0 0.00 0.00 0.00 60 1019.1
20260901195120 93 224 0.0 0.0 0.00 0.00 0.00 61 1019.2
20260901194133 93 224 0.0 0.0 0.00 0.00 0.00 58 1019.3
20260901193127 93 224 0.0 0.0 0.00 0.00 0.00 61 1019.4
20260901192119 92 218 0.0 1.0 0.00 0.00 0.00 57 1019.5
20260901191117 93 272 0.0 0.0 0.00 0.00 0.00 60 1019.7
20260901190149 93 269 0.0 0.0 0.00 0.00 0.00 60 1019.8